• In Hungary
  • List of Countries
  • For 7 days
  • Water Temperature
  • Satellite Maps
  • Weather Map
  • News
  • Weather Widgets
  • user-avatar
    Login

    Hourly Weather Komaricy

    Today, 23 October, Tuesday

    Time Temperature Precipitation Wind Pressure Humidity
    00:00 +6°C° 0.7 mm 4 mps 740 mmHg 87%
    01:00 +6°C° 0.7 mm 4 mps 740 mmHg 88%
    02:00 +6°C° 0.7 mm 4 mps 739 mmHg 89%
    03:00 +6°C° 0.4 mm 4 mps 739 mmHg 89%
    04:00 +6°C° 0.4 mm 4 mps 739 mmHg 88%
    05:00 +6°C° 0.4 mm 4 mps 738 mmHg 88%
    06:00 +5°C° 0.1 mm 4 mps 738 mmHg 86%
    07:00 +5°C° 0.1 mm 4 mps 738 mmHg 83%
    08:00 +5°C° 0.1 mm 4 mps 738 mmHg 81%
    09:00 +5°C° 0 mm 3 mps 738 mmHg 78%
    10:00 +5°C° 0 mm 3 mps 738 mmHg 75%
    11:00 +7°C° 0 mm 3 mps 738 mmHg 71%
    12:00 +7°C° 0 mm 3 mps 737 mmHg 70%
    13:00 +7°C° 0 mm 2 mps 737 mmHg 70%
    14:00 +7°C° 0 mm 2 mps 736 mmHg 69%
    15:00 +6°C° 0 mm 2 mps 736 mmHg 74%
    16:00 +5°C° 0 mm 2 mps 735 mmHg 79%
    17:00 +5°C° 0 mm 1 mps 735 mmHg 84%
    18:00 +4°C° 0 mm 2 mps 734 mmHg 85%
    19:00 +4°C° 0 mm 2 mps 734 mmHg 86%
    20:00 +4°C° 0 mm 2 mps 733 mmHg 87%
    21:00 +4°C° 0 mm 2 mps 733 mmHg 87%
    22:00 +3°C° 0 mm 2 mps 732 mmHg 88%
    23:00 +3°C° 0 mm 2 mps 731 mmHg 89%

    Tomorrow, 24 October, Wednesday

    Time Temperature Precipitation Wind Pressure Humidity
    00:00 +3°C° 0 mm 2 mps 730 mmHg 89%
    01:00 +3°C° 0 mm 2 mps 730 mmHg 90%
    02:00 +3°C° 0 mm 2 mps 729 mmHg 91%
    03:00 +3°C° 0 mm 2 mps 729 mmHg 91%
    04:00 +2°C° 0 mm 2 mps 728 mmHg 92%
    05:00 +2°C° 0 mm 2 mps 727 mmHg 92%
    06:00 +1°C° 0 mm 3 mps 727 mmHg 91%
    07:00 +1°C° 0 mm 3 mps 727 mmHg 89%
    08:00 +2°C° 0 mm 3 mps 727 mmHg 88%
    09:00 +2°C° 0 mm 3 mps 727 mmHg 84%
    10:00 +3°C° 0 mm 3 mps 726 mmHg 80%
    11:00 +4°C° 0 mm 3 mps 726 mmHg 76%
    12:00 +4°C° 0.1 mm 3 mps 726 mmHg 75%
    13:00 +5°C° 0.1 mm 3 mps 726 mmHg 74%
    14:00 +5°C° 0.1 mm 3 mps 726 mmHg 73%
    15:00 +4°C° 0.1 mm 3 mps 727 mmHg 77%
    16:00 +5°C° 0.1 mm 2 mps 727 mmHg 81%
    17:00 +4°C° 0.1 mm 2 mps 727 mmHg 85%
    18:00 +4°C° 0.1 mm 2 mps 727 mmHg 86%
    19:00 +4°C° 0.1 mm 2 mps 727 mmHg 87%
    20:00 +3°C° 0.1 mm 2 mps 727 mmHg 89%
    21:00 +2°C° 0 mm 3 mps 727 mmHg 90%
    22:00 +2°C° 0 mm 3 mps 727 mmHg 91%
    23:00 +2°C° 0 mm 3 mps 727 mmHg 93%

    Day after tomorrow, 25 October, Thursday

    Time Temperature Precipitation Wind Pressure Humidity
    00:00 +1°C° 0.2 mm 3 mps 727 mmHg 92%
    01:00 +1°C° 0.2 mm 3 mps 727 mmHg 92%
    02:00 +1°C° 0.2 mm 3 mps 727 mmHg 91%
    03:00 0°C° 0.2 mm 4 mps 727 mmHg 91%
    04:00 0°C° 0.2 mm 4 mps 727 mmHg 90%
    05:00 0°C° 0.2 mm 4 mps 727 mmHg 90%
    06:00 0°C° 0 mm 4 mps 727 mmHg 89%
    07:00 0°C° 0 mm 4 mps 726 mmHg 88%
    08:00 0°C° 0 mm 5 mps 726 mmHg 87%
    09:00 +1°C° 0 mm 5 mps 726 mmHg 85%
    10:00 +1°C° 0 mm 5 mps 725 mmHg 84%
    11:00 +1°C° 0 mm 5 mps 725 mmHg 83%
    12:00 +1°C° 0.2 mm 6 mps 724 mmHg 82%
    13:00 +1°C° 0.2 mm 6 mps 724 mmHg 82%
    14:00 0°C° 0.2 mm 7 mps 723 mmHg 81%
    15:00 0°C° 0.7 mm 7 mps 723 mmHg 81%
    16:00 0°C° 0.7 mm 7 mps 722 mmHg 81%
    17:00 0°C° 0.7 mm 8 mps 722 mmHg 80%
    18:00 0°C° 0.7 mm 8 mps 721 mmHg 80%
    19:00 0°C° 0.7 mm 8 mps 721 mmHg 80%
    20:00 -1°C° 0.7 mm 8 mps 721 mmHg 80%
    21:00 -1°C° 0.3 mm 8 mps 722 mmHg 80%
    22:00 -1°C° 0.3 mm 8 mps 722 mmHg 79%
    23:00 -1°C° 0.3 mm 7 mps 722 mmHg 78%

    26 October, Friday

    Time Temperature Precipitation Wind Pressure Humidity
    00:00 -1°C° 0.1 mm 7 mps 723 mmHg 78%
    01:00 -1°C° 0.1 mm 7 mps 724 mmHg 78%
    02:00 -1°C° 0.1 mm 6 mps 725 mmHg 77%
    03:00 -2°C° 0 mm 6 mps 726 mmHg 78%
    04:00 -2°C° 0 mm 6 mps 726 mmHg 79%
    05:00 -2°C° 0 mm 6 mps 727 mmHg 80%
    06:00 -1°C° 0 mm 5 mps 728 mmHg 80%
    07:00 -2°C° 0 mm 5 mps 728 mmHg 81%
    08:00 -2°C° 0 mm 5 mps 729 mmHg 81%
    09:00 -1°C° 0 mm 5 mps 730 mmHg 79%
    10:00 0°C° 0 mm 5 mps 730 mmHg 77%
    11:00 +1°C° 0 mm 5 mps 731 mmHg 75%
    12:00 +1°C° 0 mm 5 mps 731 mmHg 75%
    13:00 +1°C° 0 mm 5 mps 732 mmHg 75%
    14:00 +1°C° 0 mm 5 mps 732 mmHg 75%
    15:00 +1°C° 0 mm 4 mps 733 mmHg 77%
    16:00 +1°C° 0 mm 4 mps 733 mmHg 79%
    17:00 +1°C° 0 mm 3 mps 734 mmHg 80%
    18:00 +1°C° 0 mm 3 mps 734 mmHg 83%
    19:00 +1°C° 0 mm 3 mps 734 mmHg 85%
    20:00 0°C° 0 mm 3 mps 735 mmHg 87%
    21:00 0°C° 0 mm 3 mps 735 mmHg 89%
    22:00 -1°C° 0 mm 3 mps 736 mmHg 91%
    23:00 -1°C° 0 mm 3 mps 736 mmHg 93%

    27 October, Saturday

    Time Temperature Precipitation Wind Pressure Humidity
    00:00 -1°C° 0 mm 3 mps 737 mmHg 93%
    01:00 -1°C° 0 mm 3 mps 737 mmHg 93%
    02:00 -1°C° 0 mm 3 mps 738 mmHg 93%
    03:00 -1°C° 0 mm 3 mps 738 mmHg 93%
    04:00 -1°C° 0 mm 3 mps 739 mmHg 92%
    05:00 -1°C° 0 mm 3 mps 739 mmHg 92%
    06:00 -1°C° 0 mm 3 mps 740 mmHg 91%
    07:00 -1°C° 0 mm 3 mps 740 mmHg 90%
    08:00 -1°C° 0 mm 3 mps 741 mmHg 89%
    09:00 0°C° 0 mm 3 mps 741 mmHg 85%
    10:00 +1°C° 0 mm 3 mps 741 mmHg 82%
    11:00 +2°C° 0 mm 3 mps 741 mmHg 78%
    12:00 +2°C° 0 mm 3 mps 741 mmHg 78%
    13:00 +2°C° 0 mm 3 mps 741 mmHg 78%
    14:00 +2°C° 0 mm 3 mps 741 mmHg 77%
    15:00 +2°C° 0.3 mm 3 mps 740 mmHg 81%
    16:00 +1°C° 0.3 mm 4 mps 740 mmHg 84%
    17:00 0°C° 0.3 mm 4 mps 739 mmHg 87%
    18:00 +1°C° 1.2 mm 5 mps 739 mmHg 87%
    19:00 +1°C° 1.2 mm 5 mps 738 mmHg 88%
    20:00 +2°C° 1.2 mm 5 mps 737 mmHg 89%
    21:00 +2°C° 0.4 mm 5 mps 737 mmHg 89%
    22:00 +3°C° 0.4 mm 5 mps 737 mmHg 89%
    23:00 +5°C° 0.4 mm 5 mps 737 mmHg 89%

    28 October, Sunday

    Time Temperature Precipitation Wind Pressure Humidity
    00:00 +5°C° 0.1 mm 5 mps 737 mmHg 90%
    01:00 +5°C° 0.1 mm 4 mps 737 mmHg 91%
    02:00 +5°C° 0.1 mm 4 mps 737 mmHg 91%
    03:00 +5°C° 0 mm 3 mps 737 mmHg 92%
    04:00 +4°C° 0 mm 3 mps 738 mmHg 94%
    05:00 +4°C° 0 mm 3 mps 738 mmHg 95%
    06:00 +4°C° 0 mm 3 mps 738 mmHg 95%
    07:00 +5°C° 0 mm 2 mps 739 mmHg 95%
    08:00 +5°C° 0 mm 2 mps 739 mmHg 96%
    09:00 +5°C° 0 mm 2 mps 739 mmHg 93%
    10:00 +7°C° 0 mm 1 mps 739 mmHg 90%
    11:00 +7°C° 0 mm 1 mps 740 mmHg 87%
    12:00 +7°C° 0.1 mm 1 mps 740 mmHg 88%
    13:00 +7°C° 0.1 mm 1 mps 740 mmHg 89%
    14:00 +7°C° 0.1 mm 1 mps 740 mmHg 90%
    15:00 +7°C° 0.3 mm 1 mps 739 mmHg 92%
    16:00 +5°C° 0.3 mm 2 mps 739 mmHg 94%
    17:00 +5°C° 0.3 mm 2 mps 739 mmHg 96%
    18:00 +5°C° 1.1 mm 2 mps 738 mmHg 95%
    19:00 +4°C° 1.1 mm 3 mps 738 mmHg 95%
    20:00 +4°C° 1.1 mm 3 mps 737 mmHg 95%
    21:00 +4°C° 0.2 mm 3 mps 737 mmHg 94%
    22:00 +4°C° 0.2 mm 3 mps 736 mmHg 94%
    23:00 +4°C° 0.2 mm 4 mps 735 mmHg 93%

    29 October, Monday

    Time Temperature Precipitation Wind Pressure Humidity
    00:00 +5°C° 0.6 mm 4 mps 735 mmHg 93%
    01:00 +5°C° 0.6 mm 4 mps 734 mmHg 93%
    02:00 +6°C° 0.6 mm 5 mps 734 mmHg 93%
    03:00 +5°C° 0.2 mm 6 mps 734 mmHg 89%
    04:00 +4°C° 0.2 mm 6 mps 734 mmHg 85%
    05:00 +4°C° 0.2 mm 7 mps 735 mmHg 81%
    06:00 +3°C° 0 mm 7 mps 736 mmHg 82%
    07:00 +2°C° 0 mm 6 mps 738 mmHg 82%
    08:00 +1°C° 0 mm 6 mps 739 mmHg 82%
    09:00 +2°C° 0 mm 6 mps 741 mmHg 81%
    10:00 +2°C° 0 mm 5 mps 742 mmHg 80%
    11:00 +2°C° 0 mm 5 mps 744 mmHg 80%
    12:00 +3°C° 0 mm 4 mps 745 mmHg 80%
    13:00 +4°C° 0 mm 3 mps 746 mmHg 80%
    14:00 +4°C° 0 mm 3 mps 747 mmHg 80%
    15:00 +4°C° 0.1 mm 2 mps 747 mmHg 83%
    16:00 +4°C° 0.1 mm 2 mps 748 mmHg 85%
    17:00 +5°C° 0.1 mm 1 mps 749 mmHg 87%
    18:00 +4°C° 0 mm 1 mps 749 mmHg 88%
    19:00 +3°C° 0 mm 2 mps 750 mmHg 88%
    20:00 +3°C° 0 mm 2 mps 751 mmHg 89%
    21:00 +3°C° 0 mm 2 mps 751 mmHg 90%
    22:00 +2°C° 0 mm 2 mps 752 mmHg 92%
    23:00 +3°C° 0 mm 1 mps 752 mmHg 93%
    Show more